REU974 FMEE-HKJK

Flight info

Callsign REU974
Flight time 2h 54m
Altitude 38000
Route UVENA2N UVENA UN304 MAEVA UL433 MOKAD UQ315 ATUTA
Aircraft B77W/H-SDE1E2E3FGHIJ2J3J4J5M1RWXY/LB1D1

Departure

Time 2026-04-21 10:19
Airport Roland Garros Airport (FMEE)

Arrival

Time 2026-04-21 13:14
Airport Jomo Kenyatta International Airport (HKJK)
Time Latitude Longitude Altitude Speed Heading
2026-04-21 09:56 -20.89076 55.51234 65 ft 0 kts 206°
2026-04-21 10:03 -20.89075 55.51234 65 ft 0 kts 206°
2026-04-21 10:10 -20.89070 55.51237 65 ft 3 kts 209°
2026-04-21 10:10 -20.89054 55.51247 72 ft 3 kts 225°
2026-04-21 10:10 -20.89043 55.51262 53 ft 3 kts 243°
2026-04-21 10:11 -20.89036 55.51281 58 ft 3 kts 259°
2026-04-21 10:11 -20.89034 55.51301 57 ft 3 kts 272°
2026-04-21 10:11 -20.89035 55.51322 59 ft 3 kts 282°
2026-04-21 10:11 -20.89041 55.51342 57 ft 3 kts 290°
2026-04-21 10:12 -20.89048 55.51362 57 ft 1 kts 296°
2026-04-21 10:12 -20.89049 55.51363 57 ft 6 kts 296°
2026-04-21 10:14 -20.89045 55.51355 57 ft 3 kts 297°
2026-04-21 10:14 -20.89031 55.51328 57 ft 5 kts 298°
2026-04-21 10:14 -20.89013 55.51289 56 ft 7 kts 297°
2026-04-21 10:15 -20.88990 55.51241 56 ft 8 kts 296°
2026-04-21 10:15 -20.88953 55.51192 55 ft 10 kts 334°
2026-04-21 10:15 -20.88859 55.51156 55 ft 16 kts 344°
2026-04-21 10:15 -20.88753 55.51121 53 ft 15 kts 335°
2026-04-21 10:16 -20.88730 55.51093 51 ft 5 kts 293°
2026-04-21 10:16 -20.88716 55.51040 53 ft 8 kts 284°
2026-04-21 10:16 -20.88698 55.50975 50 ft 10 kts 285°
2026-04-21 10:16 -20.88685 55.50894 48 ft 12 kts 281°
2026-04-21 10:17 -20.88665 55.50801 50 ft 14 kts 284°
2026-04-21 10:17 -20.88645 55.50695 50 ft 15 kts 281°
2026-04-21 10:17 -20.88628 55.50604 50 ft 9 kts 280°
2026-04-21 10:17 -20.88600 55.50542 48 ft 10 kts 307°
2026-04-21 10:18 -20.88584 55.50488 46 ft 7 kts 246°
2026-04-21 10:18 -20.88619 55.50483 49 ft 5 kts 141°
2026-04-21 10:18 -20.88619 55.50524 50 ft 8 kts 75°
2026-04-21 10:18 -20.88619 55.50560 48 ft 0 kts 101°
2026-04-21 10:19 -20.88620 55.50569 47 ft 9 kts 101°
2026-04-21 10:19 -20.88699 55.50953 49 ft 102 kts 102°
2026-04-21 10:19 -20.88922 55.52004 105 ft 178 kts 92°
2026-04-21 10:19 -20.89134 55.53297 991 ft 165 kts 91°
2026-04-21 10:20 -20.88829 55.54390 2060 ft 163 kts 35°
2026-04-21 10:20 -20.87655 55.54349 1516 ft 221 kts 333°
2026-04-21 10:20 -20.86212 55.53862 1944 ft 215 kts 353°
2026-04-21 10:20 -20.84715 55.53603 2453 ft 230 kts 349°
2026-04-21 10:21 -20.83057 55.53211 2694 ft 258 kts 347°
2026-04-21 10:21 -20.81261 55.52806 3280 ft 266 kts 351°
2026-04-21 10:21 -20.80059 55.52546 3856 ft 267 kts 347°
2026-04-21 10:21 -20.78234 55.52069 4626 ft 270 kts 346°
2026-04-21 10:22 -20.76401 55.51588 5357 ft 273 kts 347°
2026-04-21 10:22 -20.73936 55.50959 6261 ft 276 kts 354°
2026-04-21 10:22 -20.72655 55.50765 6828 ft 278 kts 356°
2026-04-21 10:22 -20.70079 55.50303 7935 ft 286 kts 351°
2026-04-21 10:23 -20.68766 55.49966 8550 ft 289 kts 349°
2026-04-21 10:23 -20.66840 55.49442 9530 ft 290 kts 349°
2026-04-21 10:23 -20.64872 55.48926 10380 ft 294 kts 349°
2026-04-21 10:23 -20.62818 55.48416 10825 ft 315 kts 349°
2026-04-21 10:24 -20.60567 55.47874 11035 ft 345 kts 349°
2026-04-21 10:24 -20.58132 55.47264 11329 ft 370 kts 346°
2026-04-21 10:24 -20.55665 55.46347 12150 ft 378 kts 339°
2026-04-21 10:24 -20.53225 55.45282 13144 ft 381 kts 338°
2026-04-21 10:25 -20.50777 55.44197 14199 ft 381 kts 338°
2026-04-21 10:25 -20.48337 55.43114 15147 ft 384 kts 338°
2026-04-21 10:25 -20.45825 55.42002 15814 ft 394 kts 338°
2026-04-21 10:25 -20.43303 55.40891 16954 ft 391 kts 337°
2026-04-21 10:26 -20.40757 55.39773 17604 ft 404 kts 337°
2026-04-21 10:26 -20.38109 55.38613 18248 ft 414 kts 337°
2026-04-21 10:26 -20.35438 55.37446 19121 ft 414 kts 337°
2026-04-21 10:26 -20.32808 55.36300 19960 ft 418 kts 337°
2026-04-21 10:27 -20.30071 55.35107 20565 ft 427 kts 337°
2026-04-21 10:27 -20.27297 55.33899 21243 ft 434 kts 337°
2026-04-21 10:27 -20.24480 55.32672 21933 ft 440 kts 337°
2026-04-21 10:27 -20.21618 55.31426 22553 ft 448 kts 337°
2026-04-21 10:28 -20.18728 55.30169 23169 ft 455 kts 337°
2026-04-21 10:28 -20.15771 55.28883 23793 ft 460 kts 337°
2026-04-21 10:28 -20.12793 55.27588 24332 ft 465 kts 337°
2026-04-21 10:28 -20.09811 55.26293 24818 ft 472 kts 337°
2026-04-21 10:29 -20.06750 55.24963 25302 ft 478 kts 337°
2026-04-21 10:29 -20.03649 55.23617 25818 ft 483 kts 337°
2026-04-21 10:29 -20.00523 55.22260 26369 ft 487 kts 337°
2026-04-21 10:29 -19.97375 55.20895 26925 ft 491 kts 337°
2026-04-21 10:30 -19.94198 55.19518 27432 ft 495 kts 337°
2026-04-21 10:30 -19.90984 55.18125 27944 ft 500 kts 337°
2026-04-21 10:30 -19.87739 55.16719 28429 ft 504 kts 337°
2026-04-21 10:30 -19.84474 55.15305 28919 ft 509 kts 337°
2026-04-21 10:31 -19.81183 55.13881 29392 ft 513 kts 337°
2026-04-21 10:31 -19.77911 55.12465 29863 ft 517 kts 337°
2026-04-21 10:31 -19.74562 55.11017 30266 ft 520 kts 337°
2026-04-21 10:31 -19.71196 55.09562 30640 ft 524 kts 337°
2026-04-21 10:32 -19.67815 55.08102 31038 ft 525 kts 337°
2026-04-21 10:32 -19.64431 55.06640 31572 ft 523 kts 337°
2026-04-21 10:32 -19.61074 55.05192 32159 ft 520 kts 337°
2026-04-21 10:32 -19.57729 55.03749 32691 ft 518 kts 337°
2026-04-21 10:33 -19.54390 55.02309 33189 ft 517 kts 337°
2026-04-21 10:33 -19.51052 55.00870 33657 ft 516 kts 337°
2026-04-21 10:33 -19.47722 54.99435 34126 ft 515 kts 337°
2026-04-21 10:33 -19.44448 54.98025 34548 ft 513 kts 337°
2026-04-21 10:34 -19.41103 54.96585 34976 ft 512 kts 336°
2026-04-21 10:34 -19.37857 54.95188 35367 ft 510 kts 336°
2026-04-21 10:34 -19.34568 54.93774 35761 ft 509 kts 336°
2026-04-21 10:34 -19.31290 54.92365 36173 ft 507 kts 336°
2026-04-21 10:35 -19.28020 54.90959 36561 ft 506 kts 336°
2026-04-21 10:35 -19.24760 54.89559 36907 ft 505 kts 336°
2026-04-21 10:35 -19.21510 54.88162 37276 ft 504 kts 336°
2026-04-21 10:35 -19.18260 54.86768 37638 ft 503 kts 336°
2026-04-21 10:36 -19.15022 54.85378 37936 ft 503 kts 336°
2026-04-21 10:36 -19.08485 54.82574 37999 ft 507 kts 336°
2026-04-21 10:37 -19.02109 54.79610 37994 ft 499 kts 329°
2026-04-21 10:37 -18.96379 54.75544 38003 ft 495 kts 319°
2026-04-21 10:38 -18.91334 54.70628 38000 ft 493 kts 314°
2026-04-21 10:38 -18.86378 54.65601 37993 ft 494 kts 314°
2026-04-21 10:39 -18.81384 54.60601 37991 ft 495 kts 314°
2026-04-21 10:39 -18.76357 54.55613 37998 ft 496 kts 315°
2026-04-21 10:40 -18.71328 54.50629 37986 ft 496 kts 314°
2026-04-21 10:40 -18.66324 54.45669 37990 ft 497 kts 315°
2026-04-21 10:41 -18.61066 54.40935 37986 ft 498 kts 323°
2026-04-21 10:41 -18.55063 54.37243 37985 ft 501 kts 334°
2026-04-21 10:42 -18.48707 54.34265 37985 ft 500 kts 335°
2026-04-21 10:42 -18.42335 54.31311 37982 ft 500 kts 334°
2026-04-21 10:43 -18.35991 54.28319 37983 ft 499 kts 334°
2026-04-21 10:43 -18.29660 54.25312 37978 ft 498 kts 334°
2026-04-21 10:44 -18.23384 54.22333 37979 ft 497 kts 334°
2026-04-21 10:44 -18.17080 54.19347 37977 ft 497 kts 334°
2026-04-21 10:45 -18.10777 54.16363 37978 ft 496 kts 334°
2026-04-21 10:45 -18.04476 54.13379 37975 ft 495 kts 334°
2026-04-21 10:46 -17.98195 54.10400 37977 ft 495 kts 334°
2026-04-21 10:46 -17.91951 54.07438 37962 ft 494 kts 335°
2026-04-21 10:47 -17.85668 54.04461 37976 ft 495 kts 335°
2026-04-21 10:47 -17.79373 54.01482 37974 ft 496 kts 335°
2026-04-21 10:48 -17.73059 53.98496 37970 ft 497 kts 335°
2026-04-21 10:48 -17.66748 53.95514 37970 ft 498 kts 335°
2026-04-21 10:49 -17.60463 53.92546 37966 ft 498 kts 335°
2026-04-21 10:49 -17.54138 53.89562 37965 ft 498 kts 335°
2026-04-21 10:50 -17.47812 53.86579 37963 ft 498 kts 335°
2026-04-21 10:50 -17.41495 53.83603 37968 ft 497 kts 335°
2026-04-21 10:51 -17.35179 53.80630 37963 ft 497 kts 335°
2026-04-21 10:51 -17.28874 53.77664 37964 ft 496 kts 335°
2026-04-21 10:52 -17.22583 53.74707 37959 ft 495 kts 335°
2026-04-21 10:52 -17.16338 53.71774 37961 ft 495 kts 335°
2026-04-21 10:53 -17.10057 53.68826 37960 ft 494 kts 335°
2026-04-21 10:53 -17.03793 53.65888 37959 ft 493 kts 335°
2026-04-21 10:54 -16.97537 53.62956 37958 ft 492 kts 335°
2026-04-21 10:54 -16.91294 53.60032 37955 ft 491 kts 335°
2026-04-21 10:55 -16.85055 53.57112 37953 ft 491 kts 335°
2026-04-21 10:55 -16.78853 53.54212 37953 ft 491 kts 335°
2026-04-21 10:56 -16.72607 53.51293 37960 ft 492 kts 335°
2026-04-21 10:56 -16.66350 53.48371 37956 ft 493 kts 334°
2026-04-21 10:57 -16.60084 53.45446 37951 ft 494 kts 334°
2026-04-21 10:57 -16.53808 53.42519 37953 ft 494 kts 334°
2026-04-21 10:58 -16.47530 53.39593 37958 ft 494 kts 334°
2026-04-21 10:58 -16.41418 53.36457 37947 ft 491 kts 326°
2026-04-21 10:59 -16.35958 53.32242 37952 ft 487 kts 315°
2026-04-21 10:59 -16.31137 53.27304 37953 ft 486 kts 313°
2026-04-21 11:00 -16.26380 53.22309 37949 ft 486 kts 313°
2026-04-21 11:00 -16.21596 53.17327 37949 ft 486 kts 313°
2026-04-21 11:01 -16.16793 53.12368 37940 ft 486 kts 314°
2026-04-21 11:01 -16.11988 53.07423 37949 ft 486 kts 314°
2026-04-21 11:02 -16.04811 53.00043 37938 ft 486 kts 314°
2026-04-21 11:02 -15.99999 52.95097 37938 ft 486 kts 314°
2026-04-21 11:03 -15.95191 52.90157 37945 ft 485 kts 314°
2026-04-21 11:03 -15.90384 52.85222 37943 ft 486 kts 314°
2026-04-21 11:04 -15.85573 52.80288 37941 ft 486 kts 314°
2026-04-21 11:04 -15.80791 52.75386 37939 ft 486 kts 313°
2026-04-21 11:05 -15.75976 52.70454 37938 ft 486 kts 314°
2026-04-21 11:05 -15.71156 52.65521 37938 ft 487 kts 314°
2026-04-21 11:06 -15.66327 52.60582 37938 ft 487 kts 314°
2026-04-21 11:06 -15.61488 52.55637 37939 ft 487 kts 314°
2026-04-21 11:07 -15.56661 52.50705 37943 ft 487 kts 314°
2026-04-21 11:07 -15.51851 52.45795 37941 ft 487 kts 314°
2026-04-21 11:08 -15.47012 52.40859 37935 ft 487 kts 314°
2026-04-21 11:08 -15.42173 52.35927 37937 ft 487 kts 314°
2026-04-21 11:09 -15.37341 52.31005 37936 ft 487 kts 314°
2026-04-21 11:09 -15.33323 52.26915 37937 ft 486 kts 314°
2026-04-21 11:10 -15.28496 52.22005 37936 ft 486 kts 313°
2026-04-21 11:10 -15.23670 52.17098 37938 ft 486 kts 314°
2026-04-21 11:11 -15.18868 52.12219 37930 ft 486 kts 314°
2026-04-21 11:11 -15.14036 52.07314 37934 ft 486 kts 314°
2026-04-21 11:12 -15.09201 52.02408 37932 ft 486 kts 314°
2026-04-21 11:12 -15.04362 51.97501 37936 ft 486 kts 314°
2026-04-21 11:13 -14.99524 51.92600 37936 ft 487 kts 314°
2026-04-21 11:13 -14.94687 51.87703 37934 ft 487 kts 314°
2026-04-21 11:14 -14.89873 51.82831 37934 ft 487 kts 314°
2026-04-21 11:14 -14.85028 51.77931 37933 ft 486 kts 314°
2026-04-21 11:15 -14.80183 51.73035 37934 ft 486 kts 314°
2026-04-21 11:15 -14.75376 51.68181 37932 ft 486 kts 314°
2026-04-21 11:16 -14.70536 51.63296 37933 ft 486 kts 314°
2026-04-21 11:16 -14.65697 51.58415 37927 ft 486 kts 313°
2026-04-21 11:17 -14.60855 51.53534 37922 ft 486 kts 313°
2026-04-21 11:17 -14.56007 51.48649 37924 ft 486 kts 313°
2026-04-21 11:18 -14.51162 51.43772 37924 ft 486 kts 313°
2026-04-21 11:18 -14.46341 51.38927 37920 ft 487 kts 313°
2026-04-21 11:19 -14.41481 51.34053 37922 ft 487 kts 314°
2026-04-21 11:19 -14.36624 51.29183 37918 ft 487 kts 313°
2026-04-21 11:20 -14.31770 51.24316 37919 ft 487 kts 313°
2026-04-21 11:20 -14.26906 51.19446 37926 ft 487 kts 313°
2026-04-21 11:21 -14.22048 51.14582 37917 ft 487 kts 313°
2026-04-21 11:21 -14.17181 51.09710 37925 ft 487 kts 313°
2026-04-21 11:22 -14.12340 51.04871 37911 ft 488 kts 314°
2026-04-21 11:22 -14.07473 51.00006 37928 ft 487 kts 314°
2026-04-21 11:23 -14.02601 50.95142 37910 ft 487 kts 313°
2026-04-21 11:23 -13.97733 50.90284 37907 ft 487 kts 314°
2026-04-21 11:24 -13.92862 50.85425 37911 ft 487 kts 313°
2026-04-21 11:24 -13.87995 50.80573 37923 ft 486 kts 313°
2026-04-21 11:25 -13.83130 50.75725 37919 ft 486 kts 313°
2026-04-21 11:25 -13.78294 50.70911 37912 ft 487 kts 313°
2026-04-21 11:26 -13.73430 50.66071 37912 ft 487 kts 313°
2026-04-21 11:26 -13.68559 50.61226 37913 ft 487 kts 313°
2026-04-21 11:27 -13.63685 50.56380 37914 ft 487 kts 314°
2026-04-21 11:27 -13.58818 50.51545 37913 ft 487 kts 313°
2026-04-21 11:28 -13.53937 50.46692 37909 ft 487 kts 313°
2026-04-21 11:28 -13.49063 50.41849 37912 ft 487 kts 313°
2026-04-21 11:29 -13.44217 50.37038 37906 ft 487 kts 313°
2026-04-21 11:29 -13.39341 50.32198 37905 ft 487 kts 313°
2026-04-21 11:30 -13.34466 50.27360 37908 ft 486 kts 313°
2026-04-21 11:30 -13.29622 50.22558 37903 ft 486 kts 313°
2026-04-21 11:31 -13.24758 50.17739 37905 ft 486 kts 313°
2026-04-21 11:31 -13.19895 50.12925 37899 ft 485 kts 313°
2026-04-21 11:32 -13.15034 50.08115 37897 ft 485 kts 313°
2026-04-21 11:32 -13.10169 50.03303 37894 ft 485 kts 313°
2026-04-21 11:33 -13.05324 49.98511 37895 ft 484 kts 313°
2026-04-21 11:33 -13.00494 49.93739 37898 ft 484 kts 313°
2026-04-21 11:34 -12.95650 49.88956 37895 ft 484 kts 313°
2026-04-21 11:34 -12.90796 49.84165 37889 ft 484 kts 313°
2026-04-21 11:35 -12.85942 49.79381 37882 ft 484 kts 313°
2026-04-21 11:35 -12.81080 49.74588 37890 ft 484 kts 313°
2026-04-21 11:36 -12.76246 49.69826 37891 ft 484 kts 313°
2026-04-21 11:36 -12.71386 49.65041 37888 ft 484 kts 313°
2026-04-21 11:37 -12.66528 49.60261 37888 ft 484 kts 313°
2026-04-21 11:37 -12.61666 49.55479 37886 ft 484 kts 313°
2026-04-21 11:38 -12.56840 49.50733 37880 ft 483 kts 313°
2026-04-21 11:38 -12.51993 49.45972 37874 ft 483 kts 313°
2026-04-21 11:39 -12.47146 49.41211 37861 ft 482 kts 313°
2026-04-21 11:39 -12.42302 49.36457 37859 ft 481 kts 313°
2026-04-21 11:40 -12.37466 49.31713 37858 ft 481 kts 313°
2026-04-21 11:40 -12.32829 49.26870 37850 ft 478 kts 308°
2026-04-21 11:41 -12.28555 49.21663 37857 ft 477 kts 307°
2026-04-21 11:41 -12.24316 49.16442 37864 ft 477 kts 307°
2026-04-21 11:42 -12.20046 49.11223 37864 ft 478 kts 308°
2026-04-21 11:42 -12.15766 49.06024 37874 ft 478 kts 308°
2026-04-21 11:43 -12.11479 49.00827 37876 ft 478 kts 308°
2026-04-21 11:43 -12.07191 48.95630 37877 ft 478 kts 308°
2026-04-21 11:44 -12.02929 48.90466 37874 ft 479 kts 308°
2026-04-21 11:44 -11.98633 48.85263 37875 ft 479 kts 308°
2026-04-21 11:45 -11.94338 48.80064 37877 ft 479 kts 308°
2026-04-21 11:45 -11.90035 48.74859 37876 ft 479 kts 308°
2026-04-21 11:46 -11.85769 48.69700 37876 ft 478 kts 308°
2026-04-21 11:46 -11.81472 48.64507 37880 ft 478 kts 308°
2026-04-21 11:47 -11.77170 48.59311 37878 ft 478 kts 308°
2026-04-21 11:47 -11.72876 48.54128 37882 ft 478 kts 308°
2026-04-21 11:48 -11.68581 48.48945 37883 ft 478 kts 308°
2026-04-21 11:48 -11.64285 48.43764 37883 ft 478 kts 308°
2026-04-21 11:49 -11.60011 48.38613 37885 ft 478 kts 308°
2026-04-21 11:49 -11.55710 48.33431 37878 ft 478 kts 308°
2026-04-21 11:50 -11.51411 48.28256 37884 ft 478 kts 308°
2026-04-21 11:50 -11.47116 48.23087 37891 ft 478 kts 308°
2026-04-21 11:51 -11.42838 48.17940 37884 ft 478 kts 308°
2026-04-21 11:51 -11.38534 48.12767 37884 ft 478 kts 308°
2026-04-21 11:52 -11.34232 48.07598 37886 ft 477 kts 308°
2026-04-21 11:52 -11.29930 48.02431 37886 ft 477 kts 308°
2026-04-21 11:53 -11.25665 47.97311 37889 ft 477 kts 308°
2026-04-21 11:53 -11.21369 47.92157 37889 ft 477 kts 308°
2026-04-21 11:54 -11.17073 47.87005 37885 ft 476 kts 308°
2026-04-21 11:54 -11.12784 47.81864 37885 ft 476 kts 308°
2026-04-21 11:55 -11.08497 47.76728 37884 ft 476 kts 308°
2026-04-21 11:55 -11.04205 47.71589 37885 ft 476 kts 308°
2026-04-21 11:56 -10.99915 47.66453 37884 ft 476 kts 308°
2026-04-21 11:56 -10.95630 47.61325 37885 ft 476 kts 308°
2026-04-21 11:57 -10.91360 47.56221 37888 ft 476 kts 308°
2026-04-21 11:57 -10.87062 47.51094 37887 ft 476 kts 308°
2026-04-21 11:58 -10.82763 47.45969 37886 ft 476 kts 308°
2026-04-21 11:58 -10.78460 47.40840 37885 ft 476 kts 308°
2026-04-21 11:59 -10.74886 47.36581 37885 ft 476 kts 308°
2026-04-21 11:59 -10.70584 47.31456 37885 ft 475 kts 308°
2026-04-21 12:00 -10.66290 47.26342 37884 ft 475 kts 308°
2026-04-21 12:00 -10.62021 47.21261 37884 ft 474 kts 308°
2026-04-21 12:01 -10.57739 47.16168 37883 ft 474 kts 308°
2026-04-21 12:01 -10.53458 47.11077 37885 ft 473 kts 308°
2026-04-21 12:02 -10.47056 47.03468 37880 ft 471 kts 308°
2026-04-21 12:03 -10.42797 46.98411 37884 ft 470 kts 308°
2026-04-21 12:03 -10.38544 46.93361 37886 ft 469 kts 308°
2026-04-21 12:04 -10.34294 46.88318 37882 ft 469 kts 308°
2026-04-21 12:04 -10.30054 46.83289 37884 ft 468 kts 308°
2026-04-21 12:05 -10.25837 46.78290 37886 ft 468 kts 308°
2026-04-21 12:05 -10.21589 46.73255 37883 ft 469 kts 308°
2026-04-21 12:06 -10.17340 46.68222 37890 ft 469 kts 308°
2026-04-21 12:06 -10.13084 46.63182 37898 ft 470 kts 308°
2026-04-21 12:07 -10.08822 46.58138 37878 ft 470 kts 308°
2026-04-21 12:07 -10.04557 46.53092 37875 ft 471 kts 308°
2026-04-21 12:08 -10.00318 46.48079 37885 ft 471 kts 308°
2026-04-21 12:08 -9.96002 46.43078 37890 ft 471 kts 309°
2026-04-21 12:09 -9.91636 46.38114 37892 ft 471 kts 309°
2026-04-21 12:09 -9.87270 46.33148 37876 ft 471 kts 309°
2026-04-21 12:10 -9.82910 46.28174 37888 ft 471 kts 309°
2026-04-21 12:10 -9.78579 46.23227 37887 ft 471 kts 309°
2026-04-21 12:11 -9.74222 46.18252 37884 ft 471 kts 309°
2026-04-21 12:11 -9.69865 46.13282 37886 ft 471 kts 309°
2026-04-21 12:12 -9.65501 46.08304 37884 ft 471 kts 309°
2026-04-21 12:12 -9.61147 46.03341 37883 ft 471 kts 309°
2026-04-21 12:13 -9.56817 45.98406 37885 ft 471 kts 309°
2026-04-21 12:13 -9.52457 45.93439 37882 ft 471 kts 309°
2026-04-21 12:14 -9.48106 45.88484 37881 ft 471 kts 309°
2026-04-21 12:14 -9.43750 45.83525 37884 ft 471 kts 309°
2026-04-21 12:15 -9.39400 45.78578 37882 ft 470 kts 309°
2026-04-21 12:15 -9.35047 45.73628 37878 ft 470 kts 310°
2026-04-21 12:16 -9.30745 45.68737 37882 ft 470 kts 309°
2026-04-21 12:16 -9.26390 45.63789 37874 ft 470 kts 309°
2026-04-21 12:17 -9.22045 45.58852 37882 ft 470 kts 309°
2026-04-21 12:17 -9.17694 45.53913 37878 ft 469 kts 309°
2026-04-21 12:18 -9.13346 45.48978 37877 ft 470 kts 309°
2026-04-21 12:18 -9.08996 45.44043 37871 ft 470 kts 309°
2026-04-21 12:19 -9.04672 45.39139 37877 ft 470 kts 310°
2026-04-21 12:19 -9.00320 45.34205 37873 ft 470 kts 309°
2026-04-21 12:20 -8.95960 45.29265 37879 ft 470 kts 309°
2026-04-21 12:20 -8.91600 45.24327 37879 ft 470 kts 309°
2026-04-21 12:21 -8.87228 45.19375 37877 ft 470 kts 309°
2026-04-21 12:21 -8.82894 45.14472 37874 ft 470 kts 310°
2026-04-21 12:22 -8.78537 45.09542 37878 ft 469 kts 310°
2026-04-21 12:22 -8.74184 45.04618 37880 ft 470 kts 309°
2026-04-21 12:23 -8.69828 44.99692 37883 ft 470 kts 310°
2026-04-21 12:23 -8.65470 44.94769 37879 ft 470 kts 310°
2026-04-21 12:24 -8.61115 44.89849 37874 ft 469 kts 310°
2026-04-21 12:24 -8.56761 44.84931 37874 ft 469 kts 310°
2026-04-21 12:25 -8.52442 44.80055 37876 ft 468 kts 310°
2026-04-21 12:25 -8.48088 44.75141 37882 ft 468 kts 310°
2026-04-21 12:26 -8.43745 44.70243 37881 ft 468 kts 310°
2026-04-21 12:26 -8.39395 44.65336 37881 ft 468 kts 310°
2026-04-21 12:27 -8.35042 44.60431 37877 ft 468 kts 310°
2026-04-21 12:27 -8.30686 44.55523 37877 ft 469 kts 310°
2026-04-21 12:28 -8.26355 44.50644 37880 ft 470 kts 310°
2026-04-21 12:28 -8.21994 44.45733 37879 ft 470 kts 310°
2026-04-21 12:29 -8.17628 44.40819 37882 ft 470 kts 310°
2026-04-21 12:29 -8.13269 44.35913 37877 ft 470 kts 310°
2026-04-21 12:30 -8.08903 44.31004 37880 ft 470 kts 310°
2026-04-21 12:30 -8.04538 44.26095 37879 ft 469 kts 310°
2026-04-21 12:31 -8.00176 44.21191 37880 ft 468 kts 310°
2026-04-21 12:31 -7.95824 44.16301 37880 ft 468 kts 310°
2026-04-21 12:32 -7.91514 44.11459 37882 ft 466 kts 310°
2026-04-21 12:32 -7.87183 44.06594 37877 ft 465 kts 310°
2026-04-21 12:33 -7.82869 44.01752 37877 ft 463 kts 310°
2026-04-21 12:33 -7.78606 43.96943 37872 ft 457 kts 310°
2026-04-21 12:34 -7.74349 43.92079 37889 ft 466 kts 310°
2026-04-21 12:34 -7.70034 43.87143 37885 ft 472 kts 310°
2026-04-21 12:35 -7.65667 43.82160 37893 ft 477 kts 310°
2026-04-21 12:35 -7.61261 43.77137 37882 ft 479 kts 310°
2026-04-21 12:36 -7.56909 43.72178 37875 ft 476 kts 310°
2026-04-21 12:36 -7.52503 43.67160 37878 ft 477 kts 310°
2026-04-21 12:37 -7.48116 43.62164 37873 ft 475 kts 310°
2026-04-21 12:37 -7.43713 43.57151 37881 ft 478 kts 310°
2026-04-21 12:38 -7.39316 43.52147 37877 ft 478 kts 310°
2026-04-21 12:38 -7.34909 43.47133 37874 ft 477 kts 310°
2026-04-21 12:39 -7.30491 43.42109 37874 ft 477 kts 310°
2026-04-21 12:39 -7.26128 43.37148 37876 ft 476 kts 310°
2026-04-21 12:40 -7.21718 43.32134 37879 ft 479 kts 310°
2026-04-21 12:40 -7.17309 43.27126 37875 ft 477 kts 310°
2026-04-21 12:41 -7.12891 43.22107 37874 ft 477 kts 310°
2026-04-21 12:41 -7.08485 43.17103 37873 ft 478 kts 310°
2026-04-21 12:42 -7.04071 43.12092 37876 ft 478 kts 310°
2026-04-21 12:42 -6.99686 43.07117 37871 ft 478 kts 310°
2026-04-21 12:43 -6.95261 43.02098 37868 ft 478 kts 310°
2026-04-21 12:43 -6.90849 42.97095 37872 ft 478 kts 310°
2026-04-21 12:44 -6.86422 42.92075 37869 ft 477 kts 310°
2026-04-21 12:44 -6.82774 42.87940 37863 ft 474 kts 310°
2026-04-21 12:45 -6.78424 42.83012 37864 ft 469 kts 310°
2026-04-21 12:45 -6.74097 42.78110 37869 ft 468 kts 310°
2026-04-21 12:46 -6.69776 42.73216 37871 ft 467 kts 310°
2026-04-21 12:46 -6.42539 42.42391 37874 ft 470 kts 310°
2026-04-21 12:47 -6.07529 42.02867 37903 ft 475 kts 311°
2026-04-21 12:47 -5.72555 41.63306 37873 ft 478 kts 308°
2026-04-21 12:48 -5.40654 41.20407 37878 ft 480 kts 307°
2026-04-21 12:48 -5.08391 40.77496 37880 ft 482 kts 306°
2026-04-21 12:49 -4.75959 40.34444 37871 ft 482 kts 306°
2026-04-21 12:49 -4.43598 39.91566 37857 ft 480 kts 306°
2026-04-21 12:50 -4.11605 39.49636 37854 ft 478 kts 311°
2026-04-21 12:50 -3.74426 39.11581 37897 ft 477 kts 313°
2026-04-21 12:51 -3.47489 38.83731 37896 ft 477 kts 313°
2026-04-21 12:51 -3.42870 38.78961 37890 ft 476 kts 313°
2026-04-21 12:52 -3.38255 38.74194 37890 ft 476 kts 313°
2026-04-21 12:52 -3.33647 38.69432 37888 ft 476 kts 313°
2026-04-21 12:53 -3.29076 38.64709 37882 ft 476 kts 313°
2026-04-21 12:53 -3.24467 38.59948 37883 ft 475 kts 314°
2026-04-21 12:54 -3.19867 38.55197 37886 ft 475 kts 314°
2026-04-21 12:54 -3.15267 38.50447 37888 ft 475 kts 314°
2026-04-21 12:55 -3.10667 38.45694 37884 ft 475 kts 314°
2026-04-21 12:55 -3.08572 38.43185 37891 ft 464 kts 299°
2026-04-21 12:55 -3.06810 38.40509 37860 ft 459 kts 297°
2026-04-21 12:56 -3.02735 38.35707 37905 ft 448 kts 311°
2026-04-21 12:56 -2.98068 38.31723 37876 ft 439 kts 312°
2026-04-21 12:57 -2.93597 38.27638 37876 ft 431 kts 312°
2026-04-21 12:57 -2.89295 38.23523 37886 ft 429 kts 318°
2026-04-21 12:58 -2.85098 38.19337 37918 ft 424 kts 309°
2026-04-21 12:58 -2.83055 38.17181 37751 ft 429 kts 313°
2026-04-21 12:58 -2.80923 38.15100 37337 ft 437 kts 314°
2026-04-21 12:58 -2.78745 38.12977 36922 ft 438 kts 313°
2026-04-21 12:59 -2.76634 38.10731 36536 ft 438 kts 308°
2026-04-21 12:59 -2.74777 38.08366 36056 ft 438 kts 305°
2026-04-21 12:59 -2.72957 38.05901 35534 ft 442 kts 304°
2026-04-21 12:59 -2.71143 38.03400 35093 ft 444 kts 304°
2026-04-21 13:00 -2.69333 38.00908 34586 ft 443 kts 305°
2026-04-21 13:00 -2.67511 37.98423 34024 ft 444 kts 305°
2026-04-21 13:00 -2.65669 37.95935 33494 ft 443 kts 306°
2026-04-21 13:00 -2.63838 37.93479 33084 ft 438 kts 306°
2026-04-21 13:01 -2.62012 37.91040 32603 ft 436 kts 306°
2026-04-21 13:01 -2.60193 37.88615 32103 ft 435 kts 306°
2026-04-21 13:01 -2.58402 37.86232 31646 ft 433 kts 306°
2026-04-21 13:01 -2.56595 37.83827 31199 ft 432 kts 307°
2026-04-21 13:02 -2.54792 37.81427 30745 ft 430 kts 307°
2026-04-21 13:02 -2.52992 37.79031 30291 ft 429 kts 307°
2026-04-21 13:02 -2.49441 37.74303 29458 ft 422 kts 307°
2026-04-21 13:03 -2.47681 37.71959 28948 ft 420 kts 307°
2026-04-21 13:03 -2.45934 37.69634 28543 ft 416 kts 307°
2026-04-21 13:03 -2.44204 37.67332 28143 ft 413 kts 307°
2026-04-21 13:03 -2.42483 37.65041 27717 ft 410 kts 307°
2026-04-21 13:04 -2.40775 37.62768 27257 ft 408 kts 307°
2026-04-21 13:04 -2.39094 37.60531 26855 ft 406 kts 307°
2026-04-21 13:04 -2.37408 37.58287 26460 ft 403 kts 307°
2026-04-21 13:04 -2.35703 37.56019 26048 ft 400 kts 307°
2026-04-21 13:05 -2.34060 37.53832 25662 ft 398 kts 307°
2026-04-21 13:05 -2.32395 37.51617 25274 ft 396 kts 307°
2026-04-21 13:05 -2.30748 37.49425 24900 ft 394 kts 307°
2026-04-21 13:05 -2.29104 37.47238 24527 ft 392 kts 307°
2026-04-21 13:06 -2.27471 37.45066 24150 ft 390 kts 307°
2026-04-21 13:06 -2.25846 37.42904 23777 ft 388 kts 307°
2026-04-21 13:06 -2.23274 37.39480 23150 ft 385 kts 307°
2026-04-21 13:06 -2.10835 37.22920 20102 ft 365 kts 307°
2026-04-21 13:07 -1.98865 37.07017 17130 ft 349 kts 307°
2026-04-21 13:07 -1.87584 36.92051 14430 ft 333 kts 307°
2026-04-21 13:07 -1.82226 36.84968 13119 ft 326 kts 308°
2026-04-21 13:07 -1.80838 36.83202 12709 ft 320 kts 315°
2026-04-21 13:08 -1.78986 36.82016 12056 ft 318 kts 346°
2026-04-21 13:08 -1.76836 36.81833 11747 ft 306 kts
2026-04-21 13:08 -1.74707 36.81839 11402 ft 306 kts
2026-04-21 13:08 -1.72576 36.81779 11033 ft 306 kts
2026-04-21 13:09 -1.70462 36.81716 10738 ft 303 kts
2026-04-21 13:09 -1.64932 36.81563 9850 ft 300 kts
2026-04-21 13:09 -1.55322 36.81262 9034 ft 272 kts
2026-04-21 13:09 -1.53456 36.81208 9032 ft 263 kts
2026-04-21 13:10 -1.51660 36.81157 9027 ft 251 kts
2026-04-21 13:10 -1.49970 36.81115 8901 ft 247 kts
2026-04-21 13:10 -1.48256 36.81073 8797 ft 247 kts
2026-04-21 13:10 -1.46413 36.81024 8604 ft 251 kts
2026-04-21 13:11 -1.40301 36.81589 7511 ft 248 kts 42°
2026-04-21 13:11 -1.39155 36.82823 7347 ft 236 kts 52°
2026-04-21 13:11 -1.38218 36.84084 7202 ft 212 kts 55°
2026-04-21 13:11 -1.37416 36.85203 7034 ft 191 kts 55°
2026-04-21 13:12 -1.36666 36.86238 6810 ft 175 kts 55°
2026-04-21 13:12 -1.35970 36.87200 6533 ft 166 kts 56°
2026-04-21 13:12 -1.35303 36.88122 6290 ft 164 kts 54°
2026-04-21 13:12 -1.34649 36.89012 6039 ft 152 kts 54°
2026-04-21 13:13 -1.34048 36.89842 5791 ft 143 kts 42°
2026-04-21 13:13 -1.33455 36.90700 5707 ft 157 kts 55°
2026-04-21 13:13 -1.32818 36.91578 5405 ft 151 kts 40°
2026-04-21 13:13 -1.32267 36.92310 5347 ft 119 kts 52°
2026-04-21 13:14 -1.31874 36.92836 5345 ft 68 kts 45°
2026-04-21 13:14 -1.31708 36.93074 5346 ft 20 kts 56°
2026-04-21 13:14 -1.31604 36.93212 5346 ft 23 kts 60°
2026-04-21 13:14 -1.31579 36.93330 5345 ft 12 kts 122°
2026-04-21 13:15 -1.31642 36.93382 5345 ft 12 kts 149°
2026-04-21 13:15 -1.31711 36.93429 5347 ft 12 kts 144°
2026-04-21 13:15 -1.31780 36.93473 5347 ft 12 kts 169°
2026-04-21 13:15 -1.31848 36.93429 5346 ft 12 kts 229°
2026-04-21 13:16 -1.31902 36.93357 5348 ft 18 kts 233°
2026-04-21 13:16 -1.32009 36.93209 5347 ft 31 kts 233°
2026-04-21 13:16 -1.32138 36.93040 5345 ft 30 kts 234°
2026-04-21 13:16 -1.32262 36.92872 5348 ft 30 kts 232°
2026-04-21 13:17 -1.32384 36.92703 5346 ft 30 kts 236°
2026-04-21 13:17 -1.32494 36.92554 5346 ft 11 kts 234°
2026-04-21 13:17 -1.32539 36.92488 5345 ft 11 kts 237°
2026-04-21 13:17 -1.32584 36.92422 5346 ft 11 kts 236°
2026-04-21 13:18 -1.32634 36.92360 5346 ft 12 kts 218°
2026-04-21 13:18 -1.32709 36.92370 5348 ft 12 kts 139°
2026-04-21 13:18 -1.32785 36.92369 5347 ft 12 kts 217°
2026-04-21 13:18 -1.32831 36.92329 5347 ft 6 kts 186°
2026-04-21 13:19 -1.32869 36.92347 5346 ft 6 kts 143°
2026-04-21 13:19 -1.32885 36.92359 5346 ft 2 kts 144°
2026-04-21 13:19 -1.32889 36.92362 5346 ft 0 kts 143°
2026-04-21 13:19 -1.32891 36.92364 5346 ft 1 kts 139°
2026-04-21 13:21 -1.32890 36.92364 5346 ft 0 kts 139°